Flag for U.S.A. Weather past 2 weeks in Raleigh, North Carolina, U.S.A.

Now
46 °F

Passing clouds.


Feels Like: 42 °F
Forecast: 34 / 46 °F
Wind: 7 mph from North

Location: Raleigh-Durham International Airport

Current Time: Mar 28, 2015 at 7:14:35 PM

Latest Report: Mar 28, 2015 at 5:51 PM


Visibility: 10 mi

Pressure: 30.07 "Hg

Humidity: 24%

Dew point: 11 °F

Location of RaleighLocation

Historic Weather in Raleigh — Graph

°F

Raleigh temperature yesterday

Maximum temperature yesterday: 66 °F (at 12:51 AM)
Minimum temperature yesterday: 40 °F (at 9:51 PM)
Average temperature yesterday: 50 °F

Past Weeks' High & Low Weather Summary

 TemperatureHumidityPressure
High81 °F (Mar 17, 2:51 PM)100% (Mar 14, 7:51 AM)30.41 "Hg (Mar 14, 7:51 AM)
Low36 °F (Mar 28, 6:51 AM)14% (Mar 16, 4:51 PM)29.63 "Hg (Mar 27, 4:51 AM)
Average54 °F63%30.06 "Hg
* Reported Mar 13 5:51 PM — Mar 28 5:51 PM, Raleigh, Weather by CustomWeather, © 2015

Note: Actual official high and low records may vary slightly from our data, if they occured in-between our weather recording intervals... More about our weather records

Advertising

Raleigh weather history for previous 24 hours

 ConditionsComfort  
Time TempWeatherWind HumidityBarometerVisibility
5:51 PM
Sat, Mar 28
46 °FPassing clouds.7 mph24%30.07 "Hg10 mi
4:51 PM45 °FPassing clouds.12 mph26%30.05 "Hg10 mi
3:51 PM45 °FPassing clouds.6 mph27%30.05 "Hg10 mi
2:51 PM44 °FPassing clouds.7 mph28%30.05 "Hg10 mi
1:51 PM42 °FPassing clouds.8 mph33%30.06 "Hg10 mi
12:51 PM40 °FPassing clouds.12 mph36%30.06 "Hg10 mi
11:51 AM40 °FScattered clouds.12 mph40%30.06 "Hg10 mi
10:51 AM39 °FPassing clouds.13 mph41%30.05 "Hg10 mi
9:51 AM38 °FScattered clouds.8 mph46%30.04 "Hg10 mi
8:51 AM38 °FPassing clouds.8 mph53%30.01 "Hg10 mi
7:51 AM37 °FPassing clouds.6 mph67%29.98 "Hg10 mi
6:51 AM36 °FPassing clouds.No wind70%29.95 "Hg10 mi
5:51 AM38 °FPassing clouds.5 mph68%29.92 "Hg10 mi
4:51 AM40 °FPassing clouds.3 mph77%29.90 "Hg10 mi
3:51 AM41 °FOvercast.7 mph74%29.88 "Hg10 mi
2:51 AM42 °FMostly cloudy.5 mph85%29.87 "Hg10 mi
1:51 AM41 °FMostly cloudy.No wind93%29.86 "Hg10 mi
12:51 AM41 °FOvercast.No wind89%29.85 "Hg10 mi
11:51 PM
Fri, Mar 27
40 °FMostly cloudy.No wind93%29.84 "Hg10 mi
10:51 PM40 °FPassing clouds.No wind93%29.82 "Hg10 mi
9:51 PM40 °FPartly cloudy.No wind89%29.82 "Hg10 mi
8:51 PM41 °FMostly cloudy.3 mph89%29.81 "Hg10 mi
7:51 PM42 °FLight rain. Cloudy.5 mph89%29.81 "Hg10 mi
Weather by CustomWeather, © 2015

See weather overviewHow to use our weather pages